CDT,Max TemperatureF,Mean TemperatureF,Min TemperatureF,Max Dew PointF,MeanDew PointF,Min DewpointF,Max Humidity, Mean Humidity, Min Humidity, Max Sea Level PressureIn, Mean Sea Level PressureIn, Min Sea Level PressureIn, Max VisibilityMiles, Mean VisibilityMiles, Min VisibilityMiles, Max Wind SpeedMPH, Mean Wind SpeedMPH, Max Gust SpeedMPH,PrecipitationIn, CloudCover, Events, WindDirDegrees
2010-10-1,75,59,43,53,44,39,93,61,29,30.17,30.09,30.00,10,9,3,15,6,18,0.00,0,,307
2010-10-2,61,53,44,50,45,37,96,77,57,30.26,30.11,29.98,10,9,4,26,15,33,0.24,6,Rain,355
2010-10-3,61,52,42,40,36,33,89,63,37,30.38,30.33,30.26,10,10,10,21,13,25,0.00,2,,15
2010-10-4,63,49,34,37,34,31,96,63,30,30.44,30.38,30.35,10,10,10,15,8,21,0.00,0,,18
2010-10-5,69,52,35,41,35,30,92,58,23,30.44,30.36,30.29,10,10,10,13,5,18,0.00,0,,322
2010-10-6,78,59,39,48,41,36,85,57,28,30.28,30.15,30.01,10,10,10,20,9,24,0.00,0,,267
2010-10-7,79,63,46,51,43,32,93,56,19,30.15,30.10,30.02,10,10,10,13,6,17,0.00,0,,316
2010-10-8,82,62,42,44,39,32,83,51,18,30.16,30.10,30.05,10,10,10,13,6,16,0.00,0,,256
2010-10-9,88,69,49,54,48,41,74,52,29,30.08,30.03,29.99,10,10,9,13,5,16,0.00,0,,236
2010-10-10,88,71,53,55,49,43,89,56,23,30.01,29.95,29.87,10,10,7,16,5,21,0.00,0,,222
2010-10-11,85,70,55,52,47,45,77,52,27,29.89,29.86,29.81,10,10,10,15,5,21,0.00,0,,265
2010-10-12,81,67,52,52,50,47,80,58,35,29.96,29.91,29.86,10,10,10,12,4,14,0.00,2,,261
2010-10-13,66,55,44,57,51,38,93,71,48,30.15,30.05,29.96,10,7,2,23,10,29,0.25,3,Rain-Thunderstorm,331
2010-10-14,69,53,36,39,33,28,85,54,22,30.18,30.05,29.83,10,10,10,22,10,26,0.00,0,,271
2010-10-15,66,54,41,40,38,36,76,55,34,30.16,30.04,29.82,10,10,10,18,9,24,0.00,0,,336
2010-10-16,73,55,37,42,37,36,92,60,27,30.19,30.11,30.03,10,10,10,22,9,29,0.00,0,,194
2010-10-17,74,59,44,47,39,33,76,51,25,30.10,30.05,30.02,10,10,10,13,7,16,0.00,0,,28
2010-10-18,63,51,38,38,33,28,100,65,29,30.04,30.00,29.94,10,10,10,17,9,22,T,4,,53
2010-10-19,65,49,33,42,34,30,89,60,30,30.06,30.01,29.97,10,10,10,13,5,16,0.00,0,,319
2010-10-20,71,54,37,40,34,31,76,51,25,29.97,29.87,29.79,10,10,10,25,13,30,0.00,0,,236
2010-10-21,62,50,37,38,31,26,85,56,27,30.09,29.98,29.81,10,10,10,21,8,25,0.00,0,,306
2010-10-22,71,52,32,34,29,25,75,48,20,30.20,30.12,30.06,10,10,9,16,7,22,0.00,1,,182
2010-10-23,81,69,57,43,39,34,46,36,26,30.07,30.00,29.93,10,10,10,26,14,33,T,3,,182
2010-10-24,78,68,57,62,53,39,90,64,37,29.92,29.79,29.67,10,10,5,26,16,36,0.32,4,Rain-Thunderstorm,183
2010-10-25,75,66,57,64,60,55,100,80,60,29.68,29.55,29.36,10,9,3,29,16,36,T,4,Rain,179
2010-10-26,72,60,47,64,51,38,80,59,37,29.62,29.33,29.12,10,9,1,40,24,53,0.41,3,Rain-Thunderstorm,210
2010-10-27,69,57,45,39,34,26,66,44,22,29.94,29.74,29.62,10,10,10,33,18,43,0.00,0,,228
2010-10-28,46,37,28,34,32,27,85,72,58,30.37,30.20,29.96,10,10,10,26,16,31,0.00,6,,287
2010-10-29,53,38,23,30,25,22,92,60,28,30.43,30.33,30.16,10,9,5,14,6,16,0.00,0,,237
2010-10-30,66,51,36,36,31,26,73,50,26,30.14,29.96,29.84,10,10,10,28,14,35,0.00,0,,228
2010-10-31,56,48,40,41,33,27,83,58,32,30.30,30.14,29.94,10,10,10,22,13,28,0.00,0,,41